GW1000 Weather Reports


time (UTC)temp
C
wind
direction
speed
KPH
gust
KPH
rain 1hr
cm
rain 24hr
cm
rain mn
cm
humidity
%
barometer
mb
20260504140922 18 230 19.3 27.4 0.00 0.00 0.00 60 1011.5
20260504140418 18 259 24.1 33.8 0.00 0.00 0.00 63 1011.5
20260504130343 18 249 20.9 29.0 0.00 0.00 0.00 63 1011.3
20260504120306 17 238 19.3 27.4 0.00 0.00 0.00 69 1011.6
20260504110230 18 262 24.1 41.8 0.00 0.00 0.00 63 1012.3
20260504100148 18 257 30.6 38.6 0.00 0.00 0.00 57 1012.1
20260504090111 18 238 17.7 32.2 0.00 0.00 0.00 56 1012.0
20260504081541 18 272 24.1 33.8 0.00 0.00 0.00 59 1012.0
20260504081037 18 172 12.9 40.2 0.00 0.00 0.00 58 1012.0
20260504080534 18 246 24.1 35.4 0.00 0.00 0.00 58 1012.1
20260504050346 16 284 11.3 16.1 0.00 0.00 0.00 62 1011.0
20260504045843 16 221 9.7 16.1 0.00 0.00 0.00 64 1011.2
20260504045338 16 225 12.9 17.7 0.00 0.00 0.00 64 1011.0
20260504044835 16 224 11.3 12.9 0.00 0.00 0.00 64 1010.9
20260504044333 16 199 4.8 11.3 0.00 0.00 0.00 65 1011.0
20260504043830 16 239 11.3 12.9 0.00 0.00 0.00 65 1010.9
20260504043327 16 183 1.6 17.7 0.00 0.00 0.00 66 1010.8
20260504042824 16 246 9.7 14.5 0.00 0.00 0.00 66 1010.5
20260504042320 15 175 9.7 12.9 0.00 0.00 0.00 66 1010.9
20260504041817 15 208 8.0 12.9 0.00 0.00 0.00 67 1010.9
20260504041313 15 197 9.7 12.9 0.00 0.00 0.00 67 1011.1
20260504040809 15 222 6.4 12.9 0.00 0.00 0.00 67 1010.9
20260504040307 15 239 9.7 14.5 0.00 0.00 0.00 67 1010.8
20260504035803 15 236 4.8 8.0 0.00 0.00 0.00 68 1010.7
20260504035300 15 213 3.2 8.0 0.00 0.00 0.00 68 1010.7
20260504034757 15 228 4.8 4.8 0.00 0.00 0.00 68 1010.7
20260504034255 15 271 1.6 4.8 0.00 0.00 0.00 68 1010.8
20260504033752 15 170 1.6 4.8 0.00 0.00 0.00 68 1010.6
20260504033249 15 258 6.4 8.0 0.00 0.00 0.00 67 1010.6
20260504032746 15 197 6.4 9.7 0.00 0.00 0.00 67 1010.6
20260504032243 15 240 8.0 11.3 0.00 0.00 0.00 67 1010.7
20260504031740 15 218 8.0 11.3 0.00 0.00 0.00 67 1010.4
20260504031238 15 243 8.0 9.7 0.00 0.00 0.00 68 1010.5
20260504030733 15 201 3.2 11.3 0.00 0.00 0.00 68 1010.5
20260504030230 15 210 3.2 9.7 0.00 0.00 0.00 68 1010.4
20260504025727 15 204 4.8 8.0 0.00 0.00 0.00 68 1010.6
20260504025224 15 234 3.2 8.0 0.00 0.00 0.00 68 1010.3
20260504024721 15 197 3.2 9.7 0.00 0.00 0.00 68 1010.5
20260504024217 15 249 4.8 9.7 0.00 0.00 0.00 68 1010.7
20260504023714 15 191 6.4 11.3 0.00 0.00 0.00 68 1010.4
20260504023210 15 238 4.8 4.8 0.00 0.00 0.00 69 1010.5
20260504022706 15 153 1.6 4.8 0.00 0.00 0.00 69 1010.6
20260504022203 15 237 4.8 8.0 0.00 0.00 0.00 69 1010.6
20260504021701 15 150 1.6 4.8 0.00 0.00 0.00 69 1010.7
20260504021157 15 171 3.2 3.2 0.00 0.00 0.00 69 1010.6
20260504020654 15 168 3.2 8.0 0.00 0.00 0.00 69 1010.6
20260504020149 15 225 1.6 3.2 0.00 0.00 0.00 69 1010.6
20260504015647 15 266 4.8 9.7 0.00 0.00 0.00 69 1010.4
20260504015143 15 214 1.6 8.0 0.00 0.00 0.00 69 1010.6
20260504014639 15 257 3.2 4.8 0.00 0.00 0.00 68 1010.5
20260504014136 15 234 4.8 8.0 0.00 0.00 0.00 68 1010.4
20260504013634 15 242 3.2 8.0 0.00 0.00 0.00 68 1010.4
20260504013131 15 264 4.8 9.7 0.00 0.00 0.00 67 1010.6
20260504012628 15 233 4.8 9.7 0.00 0.00 0.00 67 1010.6
20260504012126 15 226 4.8 11.3 0.00 0.00 0.00 67 1010.6
20260504011622 15 232 6.4 9.7 0.00 0.00 0.00 66 1010.5
20260504011119 15 231 3.2 4.8 0.00 0.00 0.00 66 1010.5
20260504010614 15 213 8.0 9.7 0.00 0.00 0.00 66 1010.4
20260504010110 15 219 4.8 9.7 0.00 0.00 0.00 66 1010.4
20260504005608 15 219 3.2 8.0 0.00 0.00 0.00 66 1010.5
20260504005104 15 225 4.8 4.8 0.00 0.00 0.00 66 1010.5
20260504004603 15 179 6.4 8.0 0.00 0.00 0.00 66 1010.2
20260504004100 15 187 3.2 8.0 0.00 0.00 0.00 65 1010.4
20260504003555 15 162 4.8 8.0 0.00 0.00 0.00 65 1010.4
20260504003053 15 220 1.6 4.8 0.00 0.00 0.00 65 1010.6
20260504002549 15 244 3.2 8.0 0.00 0.00 0.00 66 1010.5
20260504002047 15 197 3.2 4.8 0.00 0.00 0.00 65 1010.4
20260504001544 15 245 4.8 8.0 0.00 0.00 0.00 65 1010.6
20260504001040 15 226 8.0 9.7 0.00 0.00 0.00 65 1010.6
20260504000538 15 165 3.2 8.0 0.00 0.00 0.00 64 1010.7
20260504000035 15 198 3.2 9.7 0.00 0.00 0.00 64 1010.5
20260503235533 15 246 4.8 4.8 0.00 0.00 0.00 63 1010.6
20260503235029 15 246 3.2 8.0 0.00 0.00 0.00 63 1010.7
20260503234527 15 250 4.8 8.0 0.00 0.00 0.00 63 1010.7
20260503234026 15 262 3.2 4.8 0.00 0.00 0.00 62 1010.7
20260503233521 15 260 3.2 4.8 0.00 0.00 0.00 61 1010.5
20260503233017 15 284 3.2 4.8 0.00 0.00 0.00 61 1010.8
20260503232514 15 237 1.6 3.2 0.00 0.00 0.00 60 1010.8
20260503232011 15 236 3.2 11.3 0.00 0.00 0.00 60 1010.6
20260503231509 15 255 4.8 9.7 0.00 0.00 0.00 60 1010.7
20260503231006 15 304 4.8 9.7 0.00 0.00 0.00 61 1010.7
20260503230457 15 290 6.4 11.3 0.00 0.00 0.00 61 1010.7
20260503225954 15 259 4.8 8.0 0.00 0.00 0.00 62 1010.6
20260503225451 15 327 6.4 8.0 0.00 0.00 0.00 63 1010.4
20260503224947 15 353 1.6 8.0 0.00 0.00 0.00 63 1010.7
20260503224444 16 284 3.2 8.0 0.00 0.00 0.00 63 1010.9
20260503223942 16 343 1.6 4.8 0.00 0.00 0.00 63 1010.9
20260503223439 16 286 4.8 8.0 0.00 0.00 0.00 63 1011.0
20260503222934 16 281 4.8 9.7 0.00 0.00 0.00 63 1011.1
20260503222434 16 344 4.8 8.0 0.00 0.00 0.00 63 1011.0
20260503221931 16 257 8.0 12.9 0.00 0.00 0.00 63 1011.3
20260503221429 16 293 4.8 12.9 0.00 0.00 0.00 64 1011.2
20260503220926 16 283 4.8 14.5 0.00 0.00 0.00 64 1011.3
20260503220422 16 279 6.4 9.7 0.00 0.00 0.00 64 1011.2
20260503215919 16 254 9.7 20.9 0.00 0.00 0.00 64 1011.1
20260503215416 16 255 8.0 14.5 0.00 0.00 0.00 65 1011.1
20260503214914 16 303 8.0 12.9 0.00 0.00 0.00 66 1011.1
20260503214411 16 270 6.4 9.7 0.00 0.00 0.00 66 1011.2
20260503213909 16 273 8.0 12.9 0.00 0.00 0.00 66 1011.2
20260503213406 16 233 16.1 17.7 0.00 0.00 0.00 66 1011.3
20260503212903 16 302 12.9 22.5 0.00 0.00 0.00 67 1011.2
20260503212400 16 351 8.0 14.5 0.00 0.00 0.00 68 1011.2
20260503211857 16 272 9.7 12.9 0.00 0.00 0.00 69 1011.2
20260503211354 16 255 6.4 12.9 0.00 0.00 0.00 70 1011.2
20260503210849 17 329 9.7 14.5 0.00 0.00 0.00 71 1011.2
20260503210347 17 281 8.0 11.3 0.00 0.00 0.00 72 1011.1
20260503205842 17 300 6.4 14.5 0.00 0.00 0.00 72 1011.2
20260503205339 17 323 9.7 14.5 0.00 0.00 0.00 72 1011.0
20260503204835 17 246 6.4 20.9 0.00 0.00 0.00 72 1011.2
20260503204332 17 249 14.5 17.7 0.00 0.00 0.00 71 1011.2
20260503203829 17 248 9.7 12.9 0.00 0.00 0.00 70 1011.3
20260503203327 17 283 6.4 16.1 0.00 0.00 0.00 70 1011.1
20260503202823 17 282 8.0 12.9 0.00 0.00 0.00 69 1011.2
20260503202322 17 310 4.8 12.9 0.00 0.00 0.00 69 1011.1
20260503201820 17 353 3.2 8.0 0.00 0.00 0.00 69 1011.0
20260503201316 17 302 8.0 12.9 0.00 0.00 0.00 70 1011.2
20260503200814 17 315 8.0 11.3 0.00 0.00 0.00 70 1011.3
20260503200310 16 276 4.8 9.7 0.00 0.00 0.00 69 1011.1
20260503195807 16 335 4.8 4.8 0.00 0.00 0.00 69 1011.1
20260503195304 16 295 4.8 9.7 0.00 0.00 0.00 69 1011.1
20260503194801 16 336 8.0 9.7 0.00 0.00 0.00 69 1011.2
20260503194256 16 237 4.8 8.0 0.00 0.00 0.00 69 1011.1
20260503193753 16 296 6.4 9.7 0.00 0.00 0.00 69 1011.0
20260503193249 16 307 4.8 8.0 0.00 0.00 0.00 69 1011.1
20260503192745 16 251 6.4 9.7 0.00 0.00 0.00 69 1011.0
20260503192240 17 286 6.4 8.0 0.00 0.00 0.00 69 1011.0
20260503191737 17 308 6.4 12.9 0.00 0.00 0.00 69 1011.1
20260503191234 17 344 6.4 12.9 0.00 0.00 0.00 69 1011.0
20260503190731 17 254 9.7 12.9 0.00 0.00 0.00 69 1011.2
20260503190228 17 287 16.1 27.4 0.00 0.00 0.00 69 1011.0
20260503185725 17 315 11.3 17.7 0.00 0.00 0.00 69 1011.0
20260503185221 17 286 16.1 17.7 0.00 0.00 0.00 69 1010.9
20260503184715 17 289 9.7 11.3 0.00 0.00 0.00 69 1011.0
20260503184212 17 279 8.0 12.9 0.00 0.00 0.00 69 1010.9
20260503183709 17 331 4.8 11.3 0.00 0.00 0.00 69 1010.9
20260503183206 17 342 9.7 16.1 0.00 0.00 0.00 69 1010.7
20260503182704 17 293 4.8 12.9 0.00 0.00 0.00 69 1010.7
20260503182203 17 337 14.5 17.7 0.00 0.00 0.00 69 1010.5
20260503181658 17 352 9.7 14.5 0.00 0.00 0.00 70 1010.6
20260503181155 17 356 9.7 11.3 0.00 0.00 0.00 70 1010.4
20260503180652 17 269 4.8 8.0 0.00 0.00 0.00 70 1010.2
20260503180151 17 321 14.5 17.7 0.00 0.00 0.00 70 1010.1
20260503175647 17 277 11.3 16.1 0.00 0.00 0.00 71 1010.2
20260503175144 17 281 11.3 17.7 0.00 0.00 0.00 72 1010.1
20260503174640 17 305 14.5 17.7 0.00 0.00 0.00 72 1009.9
20260503174138 17 312 14.5 16.1 0.00 0.00 0.00 73 1009.7
20260503173633 17 337 14.5 22.5 0.00 0.00 0.00 73 1009.5
20260503173130 17 260 11.3 24.1 0.00 0.00 0.00 74 1009.3
20260503172626 17 15 11.3 24.1 0.00 0.00 0.00 74 1009.5
20260503172124 17 334 16.1 20.9 0.00 0.00 0.00 75 1009.3
20260503171620 17 295 11.3 25.7 0.00 0.00 0.00 76 1009.2
20260503171117 17 271 14.5 17.7 0.00 0.00 0.00 77 1009.5
20260503170615 17 272 11.3 20.9 0.00 0.00 0.00 78 1009.0
20260503170111 17 337 11.3 14.5 0.00 0.00 0.00 79 1009.0
20260503151006 18 315 17.7 22.5 0.00 0.00 0.00 81 1008.2
20260503150503 18 48 11.3 24.1 0.00 0.00 0.00 81 1008.1